Temperature
19 19 19 18 18 18 18 17 17 17 17 17 17 16 16 16 16 16 16 16 16 15 15 15 15 15 15 15 15 15 15 14 14 15 15 15 15 15 15 16 16 16 16
19 19 19 18 18 18 17 17 17 17 17 17 17 16 16 16 16 16 15 15 15 15 15 15 15 15 15 14 14 14 14 14 14 14 14 15 15 15 15 15 15 15 15
19 19 18 18 18 18 17 17 17 17 17 16 16 16 16 16 15 15 15 15 15 15 14 14 14 14 14 14 14 14 14 14 14 14 14 14 14 14 14 15 15 15 15
18 18 18 18 17 17 17 17 17 16 16 16 16 16 15 15 15 15 15 15 14 14 14 14 14 14 14 14 14 14 14 14 13 13 13 14 14 14 14 14 14 15 15
18 18 18 17 17 17 17 16 16 16 16 16 16 15 15 15 15 15 14 14 14 14 14 14 14 14 14 13 13 13 13 13 13 13 13 13 13 13 13 14 14 14 14
18 18 17 17 17 17 16 16 16 16 16 15 15 15 15 15 14 14 14 14 14 14 14 14 14 13 13 13 13 13 13 13 13 13 13 13 13 13 13 13 13 13 14
18 17 17 17 16 16 16 16 15 15 15 15 15 15 14 14 14 14 14 14 14 14 13 13 13 13 13 13 13 13 13 13 13 12 12 13 13 13 13 13 13 13 13
17 17 16 16 16 16 16 15 15 15 15 15 14 14 14 14 14 14 14 13 13 13 13 13 13 13 13 13 13 13 12 12 12 12 12 13 13 13 13 13 13 13 13
17 16 16 16 16 15 15 15 15 15 14 14 14 14 14 14 14 14 13 13 13 13 13 13 13 13 13 13 12 12 12 12 12 12 12 12 13 13 12 12 12 12 12
16 16 16 16 15 15 15 15 14 14 14 14 14 14 14 14 14 13 13 13 13 13 13 13 13 13 13 12 12 12 12 12 12 12 12 12 12 12 12 12 12 12 12
16 16 16 15 15 15 15 14 14 14 14 14 14 14 13 13 13 13 13 13 13 13 13 13 13 13 12 12 12 12 12 12 12 12 12 12 12 12 12 12 12 12 12
15 15 15 15 14 14 14 14 14 14 14 14 14 13 13 13 13 13 13 13 12 12 12 12 12 12 12 12 12 12 12 12 12 12 12 12 12 12 12 11 11 11 11
15 15 14 14 14 14 14 14 14 14 13 13 13 13 13 13 13 13 13 12 12 12 12 12 12 12 12 12 12 12 12 12 12 11 11 11 11 11 11 11 11 11 11
14 14 14 14 14 14 14 14 13 13 13 13 13 13 13 13 12 12 12 12 12 12 12 12 11 12 11 11 11 11 11 11 11 11 11 11 11 11 11 11 11 11 11
14 14 14 14 14 13 13 13 13 13 13 13 13 13 12 12 12 12 12 12 11 11 11 11 11 11 11 11 11 11 11 11 11 10 10 10 10 10 10 10 10 10 10
14 14 13 13 13 13 13 13 13 13 13 13 13 12 12 12 12 11 11 11 11 11 11 11 11 10 10 10 10 10 10 10 10 10 10 10 10 10 10 10 10 10 10
14 13 13 13 13 13 13 13 13 13 12 12 12 12 12 12 11 11 11 11 11 11 10 10 10 10 10 10 10 10 10 10 9 9 9 9 9 9 9 9 9 9 9
13 13 13 13 13 13 12 12 12 12 12 12 12 12 12 11 11 11 11 11 11 10 10 10 9 9 9 9 9 9 9 9 9 9 9 9 9 9 9 9 9 9 9
13 13 13 13 13 12 12 12 12 12 12 12 12 11 11 11 11 11 10 10 10 10 10 9 9 9 9 9 9 9 9 9 9 9 9 9 9 9 9 9 9 9 9
13 13 13 12 12 12 12 12 12 12 12 11 11 11 11 11 11 10 10 10 9 9 9 9 9 9 9 9 9 9 8 8 8 8 8 8 8 8 8 8 8 8 8
13 13 12 12 12 12 12 12 12 11 11 11 11 11 10 10 10 10 10 10 9 9 9 9 9 9 9 8 8 8 8 8 8 8 8 8 8 8 8 8 8 8 8
13 12 12 12 12 12 12 11 11 11 11 11 11 10 10 10 10 10 9 9 9 9 9 9 9 9 8 8 8 8 8 8 8 8 8 8 8 8 8 8 8 8 8
12 12 12 12 12 11 11 11 11 11 11 11 10 10 10 10 10 10 9 9 9 9 9 8 8 8 8 8 8 8 8 8 8 8 8 8 8 8 8 7 7 7 7
12 12 12 11 11 11 11 11 11 11 10 10 10 10 10 10 10 9 9 9 9 9 8 8 8 8 8 8 8 8 8 8 8 8 8 8 8 8 7 7 7 7 7
12 12 12 11 11 11 11 11 11 10 10 10 10 10 9 9 9 9 9 9 9 9 9 8 8 8 8 8 8 8 8 8 8 8 8 8 8 7 7 7 7 7 7
12 12 11 11 11 11 11 11 10 10 10 10 10 9 9 9 9 9 8 8 8 8 8 8 8 8 8 8 8 8 8 7 7 8 8 7 7 7 7 7 7 7 7
Wind_Speed
4 4 3 3 3 3 2 2 2 1 1 1 1 1 1 0 0 0 0 1 1 1 1 1 2 2 1 2 1 1 1 1 2 4 3 3 2 3 3 4 5 6 7
3 3 3 2 2 2 2 1 2 2 1 2 1 1 1 0 0 0 1 1 0 1 2 1 2 2 1 2 1 1 1 1 2 4 4 3 3 4 3 3 3 4 5
2 2 2 2 2 2 2 1 2 2 1 1 2 1 0 0 0 0 1 1 1 2 2 2 2 1 2 2 2 2 2 2 1 2 4 3 3 3 3 3 3 3 4
3 3 2 1 2 2 2 1 1 2 2 1 1 1 1 0 0 1 1 1 1 2 2 3 3 3 3 3 3 3 2 2 2 2 4 4 3 3 2 2 3 3 4
3 3 1 1 1 1 1 1 1 2 2 2 1 1 0 0 1 1 1 1 2 3 3 4 4 4 5 4 3 3 2 2 2 3 4 3 3 3 3 2 4 4 4
4 2 1 1 1 2 1 1 1 0 1 1 1 1 1 2 2 1 1 2 2 3 4 5 5 4 5 6 6 4 3 3 4 3 4 5 6 5 4 4 3 2 3
4 3 2 2 2 1 1 2 1 1 1 0 1 1 2 3 2 2 1 1 2 3 4 4 4 4 4 4 5 6 6 6 6 5 6 7 6 5 4 4 4 4 5
3 2 2 2 2 1 1 1 1 0 0 0 1 1 1 2 2 2 2 2 2 3 4 3 4 4 5 3 3 4 5 6 7 5 6 8 7 6 5 5 5 5 4
3 3 2 2 2 1 1 1 1 1 1 1 1 1 1 3 3 2 2 2 2 4 4 3 3 4 5 4 3 4 6 6 7 7 7 8 8 7 4 2 2 2 4
3 3 3 2 2 2 2 1 1 1 1 1 1 1 1 2 3 3 2 1 2 4 4 4 5 5 6 4 3 4 6 6 6 6 5 6 6 6 5 4 4 3 3
3 2 2 2 2 2 1 1 1 1 1 1 1 2 1 2 3 3 2 1 2 3 3 4 4 7 7 6 5 4 7 6 5 4 4 4 4 3 3 3 3 3 3
2 2 1 1 1 0 0 1 1 0 0 2 1 2 2 2 3 4 4 3 2 2 3 4 5 8 8 7 5 6 7 4 3 3 3 3 4 4 4 4 4 4 4
2 1 1 0 0 0 0 0 1 1 0 1 1 1 2 3 4 5 5 5 4 2 3 6 7 8 7 5 5 6 4 2 2 2 3 4 4 4 3 3 2 2 3
2 1 1 0 0 1 1 0 1 0 0 1 1 1 2 3 3 4 4 4 5 4 4 6 7 6 5 5 5 4 3 2 2 3 4 4 3 2 3 2 2 2 2
2 1 0 0 1 1 1 1 1 2 2 3 2 2 1 3 5 5 3 3 3 3 3 2 2 3 4 4 4 4 3 3 3 3 3 3 3 3 3 2 2 1 1
1 1 1 1 1 1 1 2 3 1 0 3 4 3 2 3 5 5 5 6 5 3 1 1 2 3 3 3 3 4 3 3 4 3 3 3 3 3 3 2 2 2 2
1 1 1 1 1 1 1 1 1 3 4 2 1 2 3 3 4 5 6 6 4 1 1 1 2 2 2 3 3 3 3 4 4 3 3 3 3 3 2 2 2 1 2
1 1 1 1 2 2 2 2 2 1 2 3 4 5 5 5 6 6 5 3 3 2 1 1 2 2 2 2 3 3 3 4 3 3 3 3 3 2 2 2 2 2 2
1 1 1 1 1 1 2 2 1 2 2 2 3 4 4 4 5 5 2 0 1 2 2 2 2 2 2 2 3 3 3 3 3 3 3 3 3 2 2 3 2 2 2
1 1 0 0 0 0 1 1 1 1 1 2 2 3 2 2 2 3 1 1 2 2 2 2 2 2 2 2 3 3 3 3 3 3 3 3 3 2 3 3 2 2 2
1 1 0 0 1 1 1 1 2 2 2 2 3 3 2 1 1 2 1 1 2 3 3 2 2 3 3 3 3 3 3 3 3 3 3 3 3 3 3 3 3 2 2
1 1 1 1 1 1 1 1 1 1 2 2 2 2 2 1 1 2 2 2 3 3 3 3 3 3 3 3 3 3 3 3 3 3 4 3 3 3 2 2 2 2 1
2 1 1 1 1 1 1 1 1 1 1 2 2 2 2 2 2 2 3 3 2 2 2 2 2 3 3 3 3 3 3 4 4 4 3 3 3 3 2 2 2 1 1
2 2 2 1 1 1 1 2 2 2 2 2 2 2 2 2 2 2 2 2 2 2 1 1 2 3 4 3 3 3 3 4 4 3 4 3 3 3 2 2 2 2 2
2 2 2 2 2 2 2 2 2 2 2 2 2 2 2 1 1 1 2 1 1 2 2 2 2 3 4 4 4 4 5 5 5 4 3 2 3 3 2 2 2 2 2
2 2 2 2 2 2 2 2 2 2 2 2 1 1 1 0 0 1 1 1 2 2 2 2 3 4 4 4 5 6 6 6 5 4 2 2 2 2 2 2 2 2 2
Wind_Direction
185 186 184 185 177 171 181 188 162 130 111 114 129 132 134 126 289 68 352 31 31 350 357 15 333 343 358 351 354 353 336 171 237 279 273 287 284 298 300 269 251 240 245
173 163 165 166 154 162 191 184 153 156 162 147 133 127 135 43 35 120 267 308 296 309 304 311 304 326 339 324 326 310 281 247 224 274 291 294 278 284 286 290 285 266 252
132 132 136 157 158 173 198 186 158 168 180 156 135 132 125 339 337 257 229 252 249 254 258 251 268 283 293 287 285 283 278 296 260 257 284 286 281 296 307 301 289 290 278
131 120 110 134 170 191 191 176 175 174 170 173 158 166 185 234 296 287 250 259 269 270 262 247 255 251 253 261 274 275 275 284 281 276 280 287 285 293 301 295 302 289 285
132 127 136 131 124 125 117 145 168 178 184 180 164 181 232 247 276 267 258 254 269 282 284 270 262 257 255 255 268 267 266 263 269 269 275 286 287 300 286 269 279 284 277
132 144 145 119 111 106 100 97 99 133 193 153 155 183 237 269 276 274 253 266 268 271 278 279 277 276 285 278 278 275 252 245 247 252 263 267 268 265 263 269 267 276 282
132 135 123 114 104 110 116 91 84 67 74 143 203 224 256 276 289 310 302 275 278 274 270 276 285 299 301 296 291 293 287 270 246 236 246 252 255 255 252 267 262 249 252
131 136 131 121 109 90 89 101 144 138 195 224 240 245 265 293 306 302 306 300 289 284 273 262 261 282 295 297 304 307 297 287 268 256 245 250 253 247 233 242 251 263 273
141 154 160 149 137 129 147 200 216 218 253 251 251 231 262 294 304 308 324 310 297 294 289 284 274 275 292 297 297 297 299 294 288 278 264 264 267 269 254 250 270 276 282
165 170 166 155 155 181 209 226 242 216 223 241 277 259 252 285 304 321 344 313 305 301 301 296 293 288 298 299 277 281 289 289 297 304 300 293 284 283 269 228 224 240 257
163 146 136 146 167 191 198 241 246 238 266 284 279 299 297 291 319 333 339 337 291 294 301 300 298 305 305 298 282 267 270 281 283 283 285 289 293 292 278 256 231 219 231
138 131 145 162 178 130 123 305 305 254 323 319 326 336 329 321 325 325 328 323 309 276 287 293 299 309 308 304 296 291 294 296 290 292 290 292 290 288 279 268 256 242 239
117 125 180 232 334 99 178 279 331 341 352 320 330 312 311 318 323 330 331 328 325 297 288 303 313 318 318 314 313 315 315 314 312 299 285 277 272 274 284 292 288 279 288
139 188 218 208 338 327 324 220 182 205 231 260 262 277 302 314 318 327 332 335 339 329 314 315 319 326 336 331 331 334 331 312 283 280 283 283 291 297 287 274 274 287 310
151 176 249 267 262 300 296 274 226 222 201 194 216 218 236 286 290 292 310 319 317 304 317 331 353 351 347 343 339 337 335 335 317 296 292 293 291 288 281 268 253 258 274
152 192 207 220 268 270 274 325 348 339 233 182 177 182 231 253 296 319 323 313 309 317 38 355 340 334 328 326 329 330 330 321 310 303 295 288 286 283 285 279 246 237 251
174 222 228 224 233 234 243 230 292 340 356 356 242 228 238 277 304 320 327 323 323 58 76 320 308 303 307 310 312 313 313 308 307 307 300 292 287 288 285 282 285 271 265
185 239 240 236 233 238 240 231 211 222 295 309 295 273 274 286 299 316 332 6 7 19 344 287 279 285 293 303 305 305 309 318 319 311 305 304 303 298 290 273 265 272 271
227 242 245 246 243 243 246 239 229 224 237 270 298 307 296 296 312 328 356 82 278 294 289 291 285 279 284 293 296 295 300 307 312 313 316 315 313 309 298 285 273 275 266
238 230 200 213 250 266 257 245 241 235 245 250 263 275 317 15 352 343 353 261 267 273 271 273 276 274 276 285 290 297 308 310 313 311 309 310 307 302 295 291 274 263 260
230 217 166 141 239 240 239 238 238 227 234 248 260 265 227 214 274 287 279 260 266 271 274 274 275 276 279 284 287 292 294 291 296 301 297 295 300 303 295 291 277 264 255
200 210 218 213 236 253 241 226 253 243 237 248 271 285 270 278 276 266 262 263 263 267 263 259 269 269 265 268 273 277 280 280 286 292 295 294 291 295 301 303 301 291 269
195 208 240 236 217 214 233 250 242 242 241 246 251 267 276 267 266 265 267 269 269 268 272 270 271 284 288 280 268 256 258 267 268 271 274 281 287 290 293 295 287 283 259
201 212 225 226 206 209 224 242 246 241 243 251 253 252 252 254 266 274 274 277 283 287 278 287 288 292 298 299 296 287 276 276 277 262 252 255 270 279 281 287 281 268 256
223 224 226 226 224 227 234 240 238 237 232 240 244 248 254 253 266 294 303 308 318 313 307 303 304 308 306 308 316 319 314 310 302 293 266 250 263 270 263 268 271 266 260
238 224 218 216 223 230 233 235 237 237 226 231 241 243 237 247 284 298 311 327 331 324 321 313 312 314 311 308 314 320 325 324 317 310 294 250 261 272 256 248 258 253 259
Height
1511 1511 1510 1510 1510 1510 1510 1510 1509 1509 1509 1508 1508 1507 1506 1506 1505 1504 1503 1503 1502 1501 1500 1499 1499 1498 1497 1497 1496 1495 1494 1494 1492 1491 1491 1490 1489 1488 1487 1486 1485 1484 1484
1510 1509 1509 1509 1509 1508 1508 1508 1508 1508 1507 1506 1505 1505 1504 1504 1503 1502 1501 1501 1500 1499 1498 1497 1497 1496 1495 1494 1493 1492 1491 1490 1489 1487 1487 1486 1485 1485 1484 1483 1482 1481 1480
1508 1508 1507 1507 1507 1506 1506 1506 1506 1506 1505 1504 1504 1503 1502 1501 1500 1500 1499 1499 1498 1497 1496 1495 1494 1493 1492 1491 1490 1489 1488 1487 1486 1485 1483 1482 1482 1481 1480 1479 1478 1477 1477
1507 1507 1506 1505 1505 1504 1504 1504 1504 1503 1502 1501 1501 1500 1500 1499 1498 1498 1497 1496 1496 1495 1493 1492 1491 1490 1489 1488 1487 1486 1485 1484 1483 1482 1480 1479 1478 1477 1476 1475 1474 1473 1473
1505 1505 1504 1504 1503 1502 1502 1502 1501 1501 1499 1499 1499 1498 1498 1497 1496 1496 1495 1494 1493 1492 1491 1490 1489 1488 1486 1485 1484 1482 1481 1480 1479 1478 1476 1475 1474 1473 1472 1472 1470 1469 1469
1503 1503 1503 1502 1501 1500 1500 1499 1499 1499 1498 1497 1496 1496 1495 1495 1494 1494 1493 1492 1490 1489 1488 1487 1486 1485 1483 1482 1481 1479 1478 1476 1475 1474 1473 1472 1471 1470 1469 1468 1467 1466 1464
1502 1501 1501 1500 1499 1499 1498 1498 1497 1497 1496 1495 1494 1494 1493 1492 1492 1491 1490 1489 1487 1486 1485 1484 1483 1482 1480 1479 1477 1475 1474 1473 1472 1471 1469 1468 1467 1467 1466 1464 1463 1462 1461
1499 1499 1499 1498 1498 1497 1497 1497 1496 1495 1495 1494 1493 1492 1491 1490 1489 1488 1487 1486 1485 1483 1482 1481 1480 1478 1477 1475 1473 1471 1470 1468 1468 1467 1465 1464 1463 1463 1462 1461 1460 1459 1458
1498 1497 1497 1497 1496 1496 1495 1494 1494 1494 1493 1492 1491 1490 1489 1488 1487 1486 1484 1483 1481 1480 1479 1478 1476 1475 1473 1472 1470 1468 1466 1464 1464 1462 1461 1460 1459 1459 1458 1457 1456 1455 1453
1495 1495 1495 1495 1494 1494 1493 1493 1492 1492 1491 1490 1489 1488 1487 1486 1485 1483 1482 1480 1478 1477 1475 1474 1473 1471 1470 1468 1466 1464 1462 1460 1459 1458 1457 1456 1455 1455 1454 1453 1452 1451 1450
1493 1493 1493 1493 1492 1492 1491 1491 1490 1490 1489 1488 1487 1486 1485 1484 1482 1481 1480 1478 1476 1474 1472 1471 1470 1468 1466 1464 1462 1460 1458 1457 1456 1455 1454 1452 1452 1451 1450 1449 1449 1448 1447
1492 1492 1491 1490 1490 1490 1490 1489 1489 1488 1487 1486 1485 1483 1482 1481 1480 1479 1477 1476 1474 1472 1470 1468 1467 1465 1463 1461 1459 1457 1456 1454 1453 1451 1450 1448 1448 1447 1446 1446 1445 1444 1443
1490 1490 1490 1489 1488 1488 1488 1487 1486 1486 1485 1484 1483 1482 1480 1479 1478 1477 1475 1473 1471 1469 1467 1466 1464 1462 1460 1458 1456 1454 1453 1451 1449 1447 1446 1445 1444 1444 1443 1442 1441 1440 1439
1488 1488 1488 1487 1487 1486 1486 1485 1484 1483 1483 1482 1481 1480 1479 1478 1476 1474 1472 1471 1469 1467 1466 1464 1462 1460 1458 1456 1454 1452 1450 1448 1447 1445 1443 1442 1441 1440 1439 1439 1438 1436 1435
1487 1486 1486 1486 1485 1484 1484 1483 1482 1481 1481 1480 1479 1479 1477 1476 1474 1473 1471 1468 1467 1465 1463 1461 1459 1457 1455 1453 1451 1449 1447 1446 1444 1442 1440 1439 1438 1436 1435 1435 1434 1433 1432
1485 1485 1485 1484 1483 1482 1481 1480 1480 1480 1479 1478 1477 1476 1475 1474 1472 1471 1468 1466 1464 1463 1460 1458 1456 1454 1452 1451 1449 1447 1445 1443 1441 1439 1438 1436 1434 1433 1432 1431 1430 1429 1428
1484 1483 1483 1482 1481 1480 1479 1479 1478 1477 1476 1475 1475 1474 1473 1471 1470 1468 1466 1464 1462 1460 1458 1456 1454 1452 1451 1449 1447 1445 1443 1441 1439 1437 1435 1433 1431 1430 1429 1428 1427 1426 1425
1482 1482 1481 1480 1479 1478 1478 1477 1476 1475 1474 1473 1472 1471 1470 1469 1467 1466 1464 1462 1460 1457 1456 1454 1452 1451 1449 1447 1445 1443 1440 1438 1436 1434 1432 1430 1429 1427 1426 1425 1424 1424 1423
1481 1480 1479 1478 1477 1477 1476 1475 1474 1473 1472 1471 1470 1469 1468 1466 1465 1463 1461 1459 1457 1455 1454 1452 1450 1448 1446 1445 1443 1440 1438 1436 1433 1431 1429 1428 1426 1425 1423 1422 1421 1421 1420
1479 1478 1477 1476 1476 1475 1474 1473 1472 1471 1470 1469 1468 1466 1465 1464 1462 1460 1459 1457 1455 1453 1451 1449 1448 1446 1444 1442 1440 1438 1436 1433 1431 1429 1427 1425 1423 1422 1421 1419 1418 1418 1417
1476 1476 1475 1475 1474 1473 1472 1471 1470 1469 1467 1466 1465 1464 1463 1462 1460 1458 1456 1454 1452 1451 1449 1447 1445 1443 1441 1439 1437 1435 1433 1430 1428 1426 1424 1422 1421 1420 1418 1417 1416 1415 1414
1474 1474 1473 1472 1472 1471 1469 1468 1468 1466 1465 1464 1463 1462 1461 1459 1458 1456 1454 1452 1450 1449 1447 1444 1442 1440 1438 1436 1433 1431 1429 1427 1425 1423 1422 1420 1418 1417 1416 1414 1413 1412 1412
1472 1471 1471 1470 1469 1468 1467 1466 1465 1464 1463 1462 1461 1460 1459 1457 1455 1454 1452 1450 1448 1446 1444 1442 1439 1437 1435 1433 1431 1428 1426 1424 1422 1421 1419 1417 1416 1415 1414 1412 1411 1411 1410
1469 1469 1468 1467 1467 1466 1465 1464 1463 1462 1461 1460 1459 1457 1456 1454 1453 1451 1449 1448 1446 1444 1442 1439 1437 1435 1432 1430 1428 1426 1424 1422 1420 1418 1417 1415 1414 1412 1412 1411 1410 1409 1408
1467 1466 1466 1465 1464 1463 1463 1462 1460 1459 1458 1457 1456 1454 1453 1452 1450 1449 1447 1445 1443 1441 1439 1437 1435 1432 1430 1428 1425 1423 1421 1419 1417 1416 1414 1413 1412 1411 1410 1409 1408 1408 1407
1465 1464 1463 1463 1462 1461 1460 1459 1458 1457 1456 1454 1453 1452 1450 1449 1447 1446 1444 1442 1440 1438 1436 1434 1432 1429 1427 1425 1423 1421 1419 1417 1415 1413 1412 1410 1409 1408 1408 1407 1407 1406 1406